OK1FET-5 Weather Reports


time (UTC)temp
C
wind
direction
speed
KPH
gust
KPH
rain 1hr
cm
rain 24hr
cm
rain mn
cm
humidity
%
barometer
mb
20260506051243 14 249 8.0 12.9 0.00 0.00 0.00 72 1007.0
20260506050749 14 294 8.0 12.9 0.00 0.00 0.00 72 1006.9
20260506050254 13 251 6.4 16.1 0.00 0.00 0.00 72 1006.8
20260506044812 14 267 4.8 8.0 0.00 0.00 0.00 73 1006.8
20260506044317 13 270 6.4 9.7 0.00 0.00 0.00 75 1006.8
20260506043822 12 261 4.8 9.7 0.00 0.00 0.00 77 1006.9
20260506043328 12 277 6.4 12.9 0.00 0.00 0.00 78 1006.9
20260506042834 12 271 6.4 12.9 0.00 0.00 0.00 77 1007.0
20260506042340 12 234 6.4 14.5 0.00 0.00 0.00 77 1006.9
20260506041845 12 261 6.4 12.9 0.00 0.00 0.00 78 1006.8
20260506041351 12 262 6.4 11.3 0.00 0.00 0.00 77 1006.8
20260506040857 12 261 6.4 9.7 0.00 0.00 0.00 79 1006.7
20260506040403 12 283 6.4 9.7 0.00 0.00 0.00 80 1006.6
20260506035908 12 258 4.8 8.0 0.00 0.00 0.00 84 1006.6
20260506035414 11 283 4.8 8.0 0.00 0.00 0.00 88 1006.4
20260506034920 11 274 6.4 16.1 0.00 0.00 0.00 90 1006.5
20260506034426 10 300 4.8 9.7 0.00 0.00 0.00 92 1006.5
20260506033932 10 299 4.8 11.3 0.00 0.00 0.00 92 1006.6
20260506033438 10 285 4.8 8.0 0.00 0.00 0.00 91 1006.6
20260506032943 10 291 4.8 9.7 0.00 0.00 0.00 93 1006.6
20260506032449 10 287 4.8 8.0 0.00 0.00 0.00 92 1006.6
20260506031955 10 277 4.8 8.0 0.00 0.00 0.00 91 1006.6
20260506031501 10 293 4.8 9.7 0.00 0.00 0.00 90 1006.6
20260506031007 10 280 4.8 6.4 0.00 0.00 0.00 90 1006.6
20260506030513 10 246 4.8 8.0 0.00 0.00 0.00 89 1006.6
20260506030018 10 263 3.2 6.4 0.00 0.00 0.00 90 1006.6
20260506025524 10 286 3.2 6.4 0.00 0.00 0.00 91 1006.5
20260506025030 10 283 3.2 4.8 0.00 0.00 0.00 91 1006.5
20260506024536 10 264 3.2 4.8 0.00 0.00 0.00 90 1006.6
20260506024042 10 235 3.2 6.4 0.00 0.00 0.00 90 1006.7
20260506023548 10 273 3.2 4.8 0.00 0.00 0.00 92 1006.8
20260506023053 10 300 3.2 4.8 0.00 0.00 0.00 93 1006.8
20260506022559 11 312 3.2 4.8 0.00 0.00 0.00 95 1006.8
20260506022105 11 294 3.2 6.4 0.00 0.00 0.00 96 1006.8
20260506021611 11 309 4.8 6.4 0.00 0.00 0.00 98 1006.8
20260506021117 11 306 3.2 4.8 0.00 0.00 0.00 97 1006.8
20260506020128 11 322 4.8 8.0 0.00 0.00 0.00 100 1006.8
20260506015634 11 321 4.8 6.4 0.00 0.00 0.00 100 1006.8
20260506015140 11 324 4.8 6.4 0.00 0.00 0.00 100 1006.8
20260506014646 11 327 4.8 8.0 0.00 0.00 0.00 100 1006.8
20260506014152 11 315 4.8 8.0 0.00 0.00 0.00 100 1006.7
20260506013657 11 318 6.4 9.7 0.00 0.00 0.00 100 1006.7
20260506013204 11 321 6.4 8.0 0.00 0.00 0.00 100 1006.7
20260506012709 11 318 6.4 8.0 0.00 0.00 0.00 100 1006.6
20260506011721 11 318 4.8 9.7 0.00 0.00 0.00 100 1006.5
20260506011227 11 316 6.4 9.7 0.00 0.00 0.00 100 1006.5
20260506010732 11 319 8.0 9.7 0.00 0.00 0.00 100 1006.6
20260506010238 11 316 6.4 8.0 0.00 0.00 0.00 97 1006.6
20260506005744 11 316 6.4 9.7 0.00 0.00 0.00 96 1006.5
20260506005250 11 319 4.8 8.0 0.00 0.00 0.00 94 1006.6
20260506004755 11 308 3.2 6.4 0.00 0.00 0.00 94 1006.4
20260506004302 11 322 4.8 8.0 0.00 0.00 0.00 95 1006.6
20260506003807 11 312 4.8 8.0 0.00 0.00 0.00 96 1006.7
20260506003313 11 311 4.8 8.0 0.00 0.00 0.00 94 1006.8
20260506002819 11 312 4.8 4.8 0.00 0.00 0.00 92 1006.7
20260506002324 11 306 4.8 6.4 0.00 0.00 0.00 93 1006.7
20260506001830 11 321 4.8 6.4 0.00 0.00 0.00 94 1006.5
20260506001336 11 313 3.2 6.4 0.00 0.00 0.00 93 1006.6
20260506000842 11 305 4.8 8.0 0.00 0.00 0.00 94 1006.6
20260506000348 11 308 6.4 8.0 0.00 0.00 0.00 93 1006.6
20260505235853 11 294 4.8 11.3 0.00 0.00 0.00 90 1006.7
20260505235359 11 272 3.2 6.4 0.00 0.00 0.00 86 1006.7
20260505234905 11 231 3.2 4.8 0.00 0.00 0.00 85 1006.8
20260505234411 11 222 4.8 6.4 0.00 0.00 0.00 85 1006.7
20260505233916 11 204 8.0 9.7 0.00 0.00 0.00 85 1006.6
20260505233422 11 249 3.2 6.4 0.00 0.00 0.00 85 1006.6
20260505232928 11 289 3.2 4.8 0.00 0.00 0.00 87 1006.6
20260505232434 11 239 6.4 11.3 0.00 0.00 0.00 86 1006.7
20260505231939 11 192 9.7 12.9 0.00 0.00 0.00 85 1006.7
20260505231445 11 225 4.8 8.0 0.00 0.00 0.00 83 1006.7
20260505230951 11 303 3.2 6.4 0.00 0.00 0.00 86 1006.6
20260505230457 11 117 4.8 8.0 0.00 0.00 0.00 87 1006.4
20260505230003 11 157 4.8 6.4 0.00 0.00 0.00 87 1006.5
20260505225508 11 357 3.2 6.4 0.00 0.00 0.00 88 1006.4
20260505225014 11 8 3.2 8.0 0.00 0.00 0.00 88 1006.2
20260505224520 11 348 3.2 3.2 0.00 0.00 0.00 87 1006.2
20260505224025 11 294 1.6 6.4 0.00 0.00 0.00 88 1006.5
20260505223531 11 315 3.2 4.8 0.00 0.00 0.00 88 1006.7
20260505223037 11 332 3.2 8.0 0.00 0.00 0.00 88 1006.8
20260505222543 11 8 3.2 4.8 0.00 0.00 0.00 89 1006.9
20260505222048 11 329 4.8 9.7 0.00 0.00 0.00 89 1007.1
20260505221554 11 351 3.2 6.4 0.00 0.00 0.00 90 1007.2
20260505221100 11 356 4.8 9.7 0.00 0.00 0.00 91 1007.2
20260505220606 11 341 6.4 11.3 0.00 0.00 0.00 93 1007.2
20260505220111 11 328 6.4 9.7 0.00 0.00 0.00 95 1007.1
20260505215617 11 324 6.4 11.3 0.00 0.00 0.00 93 1007.3
20260505215123 11 330 6.4 11.3 0.00 0.00 0.00 92 1007.3
20260505214629 11 342 8.0 11.3 0.00 0.00 0.00 90 1007.4
20260505214134 11 328 6.4 11.3 0.00 0.00 0.00 91 1007.5
20260505213640 11 336 8.0 12.9 0.00 0.00 0.00 92 1007.5
20260505213146 11 324 6.4 8.0 0.00 0.00 0.00 92 1007.6
20260505212652 12 339 6.4 12.9 0.00 0.00 0.00 89 1007.6
20260505212157 12 326 8.0 12.9 0.00 0.00 0.00 90 1007.6
20260505211703 12 331 8.0 12.9 0.00 0.00 0.00 90 1007.6
20260505211209 12 315 8.0 14.5 0.00 0.00 0.00 86 1007.3
20260505210714 13 323 9.7 17.7 0.00 0.00 0.00 83 1007.0
20260505210219 14 322 14.5 25.7 0.00 0.00 0.00 82 1006.9
20260505205725 16 309 11.3 17.7 0.00 0.00 0.00 79 1006.7
20260505205230 16 294 6.4 9.7 0.00 0.00 0.00 71 1006.6
20260505204735 16 312 6.4 8.0 0.00 0.00 0.00 72 1006.2
20260505203747 16 318 4.8 8.0 0.00 0.00 0.00 67 1005.6
20260505203252 16 331 4.8 8.0 0.00 0.00 0.00 65 1005.0
20260505202757 16 355 4.8 8.0 0.00 0.00 0.00 65 1004.7
20260505202306 16 321 4.8 12.9 0.00 0.00 0.00 65 1004.7
20260505201808 16 346 4.8 11.3 0.00 0.00 0.00 64 1004.6
20260505201313 16 328 4.8 9.7 0.00 0.00 0.00 64 1004.5
20260505200324 16 352 4.8 8.0 0.00 0.00 0.00 64 1004.4
20260505195829 16 341 3.2 6.4 0.00 0.00 0.00 63 1004.4
20260505195335 16 5 4.8 14.5 0.00 0.00 0.00 63 1004.3
20260505194840 16 340 3.2 4.8 0.00 0.00 0.00 62 1004.5
20260505194346 16 350 3.2 6.4 0.00 0.00 0.00 62 1004.5
20260505193851 16 317 3.2 8.0 0.00 0.00 0.00 62 1004.5
20260505193356 16 330 3.2 6.4 0.00 0.00 0.00 63 1004.5
20260505192902 16 353 3.2 6.4 0.00 0.00 0.00 62 1004.4
20260505192407 16 310 1.6 4.8 0.00 0.00 0.00 61 1004.6
20260505191913 16 330 1.6 3.2 0.00 0.00 0.00 61 1004.8
20260505190924 16 9 3.2 6.4 0.00 0.00 0.00 61 1004.9
20260505190429 16 330 3.2 4.8 0.00 0.00 0.00 60 1005.0
20260505185935 16 342 3.2 4.8 0.00 0.00 0.00 59 1005.1
20260505185440 16 333 3.2 4.8 0.00 0.00 0.00 58 1005.3
20260505184946 16 5 1.6 4.8 0.00 0.00 0.00 56 1005.4
20260505184451 16 322 1.6 6.4 0.00 0.00 0.00 55 1005.4
20260505183956 17 20 4.8 6.4 0.00 0.00 0.00 55 1005.3
20260505183502 17 60 8.0 11.3 0.00 0.00 0.00 54 1005.3
20260505183007 17 54 8.0 9.7 0.00 0.00 0.00 56 1005.2
20260505182018 16 75 9.7 12.9 0.00 0.00 0.00 59 1005.2
20260505181523 17 87 9.7 12.9 0.00 0.00 0.00 62 1005.3
20260505181028 17 91 12.9 17.7 0.00 0.00 0.00 70 1005.3
20260505180534 17 100 14.5 17.7 0.00 0.00 0.00 73 1005.4
20260505180039 18 137 16.1 19.3 0.00 0.00 0.00 65 1005.4
20260505175544 20 118 16.1 20.9 0.00 0.00 0.00 53 1005.4
20260505175049 20 111 9.7 11.3 0.00 0.00 0.00 55 1005.2
20260505174554 20 140 6.4 11.3 0.00 0.00 0.00 49 1005.1
20260505174059 20 278 1.6 4.8 0.00 0.00 0.00 42 1005.0
20260505173604 21 2 3.2 6.4 0.00 0.00 0.00 42 1005.0
20260505173109 21 221 3.2 8.0 0.00 0.00 0.00 41 1004.9
20260505172614 21 316 3.2 9.7 0.00 0.00 0.00 41 1004.9
20260505172119 21 130 4.8 6.4 0.00 0.00 0.00 41 1004.9
20260505171128 22 58 4.8 11.3 0.00 0.00 0.00 40 1005.0
20260505170633 22 23 4.8 9.7 0.00 0.00 0.00 40 1005.1
20260505170138 22 68 3.2 8.0 0.00 0.00 0.00 39 1005.1
20260505165643 23 8 4.8 11.3 0.00 0.00 0.00 38 1005.1
20260505165147 23 231 4.8 11.3 0.00 0.00 0.00 38 1005.1
20260505164653 23 175 4.8 9.7 0.00 0.00 0.00 38 1005.1
20260505164157 23 98 4.8 8.0 0.00 0.00 0.00 38 1005.0
20260505163701 23 92 4.8 14.5 0.00 0.00 0.00 38 1005.0
20260505163206 23 121 4.8 9.7 0.00 0.00 0.00 37 1005.0
20260505162710 24 138 6.4 11.3 0.00 0.00 0.00 37 1004.9
20260505162215 24 204 4.8 8.0 0.00 0.00 0.00 37 1004.8
20260505161720 25 164 4.8 8.0 0.00 0.00 0.00 37 1004.9
20260505160728 25 98 4.8 8.0 0.00 0.00 0.00 37 1005.0
20260505153259 26 127 6.4 11.3 0.00 0.00 0.00 35 1005.2
20260505152803 26 78 3.2 8.0 0.00 0.00 0.00 35 1005.4
20260505152308 26 57 4.8 8.0 0.00 0.00 0.00 35 1005.4
20260505151812 25 29 4.8 8.0 0.00 0.00 0.00 35 1005.6
20260505151317 25 173 4.8 9.7 0.00 0.00 0.00 34 1005.5
20260505150821 25 193 4.8 14.5 0.00 0.00 0.00 35 1005.5
20260505150326 25 172 4.8 11.3 0.00 0.00 0.00 34 1005.6
20260505140418 27 139 12.9 17.7 0.00 0.00 0.00 32 1005.9
20260505125017 28 102 6.4 9.7 0.00 0.00 0.00 33 1006.3
20260505123528 28 159 4.8 8.0 0.00 0.00 0.00 35 1006.6
20260505123032 28 179 9.7 12.9 0.00 0.00 0.00 35 1006.7
20260505122536 28 167 8.0 12.9 0.00 0.00 0.00 32 1006.7
20260505122040 29 142 8.0 12.9 0.00 0.00 0.00 36 1006.8
20260505121543 30 117 4.8 12.9 0.00 0.00 0.00 32 1006.8
20260505121047 30 139 6.4 9.7 0.00 0.00 0.00 36 1006.9
20260505120551 30 92 4.8 8.0 0.00 0.00 0.00 36 1006.9
20260505120054 30 132 3.2 6.4 0.00 0.00 0.00 36 1007.0
20260505115558 30 89 6.4 11.3 0.00 0.00 0.00 37 1007.1
20260505115102 30 116 4.8 9.7 0.00 0.00 0.00 36 1007.1
20260505114605 31 93 4.8 8.0 0.00 0.00 0.00 35 1007.0
20260505114109 31 223 4.8 9.7 0.00 0.00 0.00 33 1007.0
20260505113612 31 28 3.2 6.4 0.00 0.00 0.00 35 1007.2
20260505113116 31 332 3.2 6.4 0.00 0.00 0.00 36 1007.2
20260505112620 30 63 4.8 6.4 0.00 0.00 0.00 37 1007.3
20260505112124 29 126 4.8 8.0 0.00 0.00 0.00 37 1007.3
20260505111627 30 197 4.8 9.7 0.00 0.00 0.00 34 1007.4
20260505111131 31 59 4.8 8.0 0.00 0.00 0.00 36 1007.4
20260505110635 30 28 3.2 6.4 0.00 0.00 0.00 36 1007.4
20260505110139 29 152 4.8 9.7 0.00 0.00 0.00 37 1007.5
20260505102210 29 280 1.6 4.8 0.00 0.00 0.00 37 1008.0
20260505101715 27 135 4.8 8.0 0.00 0.00 0.00 38 1008.1
20260505101219 26 164 4.8 8.0 0.00 0.00 0.00 38 1008.0
20260505100723 25 152 4.8 6.4 0.00 0.00 0.00 39 1008.1
20260505100227 25 80 3.2 8.0 0.00 0.00 0.00 39 1008.1
20260505095732 26 86 8.0 11.3 0.00 0.00 0.00 39 1008.1
20260505095236 27 114 8.0 11.3 0.00 0.00 0.00 37 1008.1
20260505094740 27 139 6.4 11.3 0.00 0.00 0.00 37 1008.0
20260505094244 27 132 8.0 11.3 0.00 0.00 0.00 38 1008.1
20260505093748 28 74 6.4 9.7 0.00 0.00 0.00 36 1008.2
20260505093252 27 78 4.8 8.0 0.00 0.00 0.00 40 1008.3
20260505092756 26 110 6.4 9.7 0.00 0.00 0.00 40 1008.3
20260505092300 26 99 8.0 9.7 0.00 0.00 0.00 40 1008.4
20260505091805 27 111 6.4 9.7 0.00 0.00 0.00 40 1008.4
20260505091309 27 107 4.8 6.4 0.00 0.00 0.00 41 1008.4
20260505090813 26 118 6.4 11.3 0.00 0.00 0.00 39 1008.5
20260505090317 27 156 4.8 8.0 0.00 0.00 0.00 40 1008.5
20260505085821 27 111 6.4 9.7 0.00 0.00 0.00 41 1008.6
20260505084829 27 129 4.8 6.4 0.00 0.00 0.00 41 1008.6
20260505084334 26 111 4.8 9.7 0.00 0.00 0.00 41 1008.6
20260505083838 26 94 4.8 12.9 0.00 0.00 0.00 42 1008.6
20260505083342 25 117 6.4 9.7 0.00 0.00 0.00 43 1008.6
20260505082847 25 84 6.4 9.7 0.00 0.00 0.00 43 1008.7
20260505082351 25 129 4.8 8.0 0.00 0.00 0.00 44 1008.7
20260505081856 23 122 8.0 11.3 0.00 0.00 0.00 43 1008.8
20260505081401 23 102 6.4 11.3 0.00 0.00 0.00 44 1008.9
20260505080905 23 106 8.0 9.7 0.00 0.00 0.00 44 1008.9
20260505080410 22 105 6.4 8.0 0.00 0.00 0.00 46 1008.9
20260505075915 22 96 6.4 11.3 0.00 0.00 0.00 45 1008.9
20260505075419 23 111 6.4 8.0 0.00 0.00 0.00 45 1008.9
20260505074924 23 132 8.0 11.3 0.00 0.00 0.00 45 1009.0
20260505074429 25 148 4.8 9.7 0.00 0.00 0.00 44 1009.1
20260505073933 24 128 4.8 8.0 0.00 0.00 0.00 46 1009.1
20260505073438 23 96 8.0 11.3 0.00 0.00 0.00 45 1009.1
20260505072942 23 117 6.4 11.3 0.00 0.00 0.00 45 1009.1
20260505072447 23 118 6.4 9.7 0.00 0.00 0.00 47 1009.1
20260505071952 22 113 6.4 11.3 0.00 0.00 0.00 46 1009.2
20260505071457 23 122 6.4 11.3 0.00 0.00 0.00 47 1009.2
20260505071002 23 101 6.4 8.0 0.00 0.00 0.00 46 1009.2
20260505070506 23 140 4.8 8.0 0.00 0.00 0.00 46 1009.3
20260505070011 23 156 4.8 8.0 0.00 0.00 0.00 47 1009.3
20260505065515 23 136 3.2 6.4 0.00 0.00 0.00 47 1009.3
20260505064525 21 82 3.2 4.8 0.00 0.00 0.00 50 1009.4
20260505064031 19 47 3.2 4.8 0.00 0.00 0.00 51 1009.4
20260505063536 18 57 3.2 4.8 0.00 0.00 0.00 52 1009.5
20260505063041 18 357 1.6 3.2 0.00 0.00 0.00 53 1009.5
20260505062547 18 256 0.0 3.2 0.00 0.00 0.00 55 1009.5
20260505061557 17 71 3.2 4.8 0.00 0.00 0.00 55 1009.5
20260505061103 17 99 3.2 4.8 0.00 0.00 0.00 56 1009.6
20260505060608 16 111 3.2 3.2 0.00 0.00 0.00 56 1009.7
20260505060114 16 128 1.6 3.2 0.00 0.00 0.00 57 1009.7
20260505055619 16 195 1.6 3.2 0.00 0.00 0.00 57 1009.7
20260505055125 15 324 1.6 3.2 0.00 0.00 0.00 57 1009.7